[[{"header":{"parameterUnit":"m.s-1","parameterCategory":1,"la1":30.2992,"la2":30.254,"lo1":-89.0895,"lo2":-89.0443,"dy":0.0025,"dx":0.0025,"nx":19,"ny":19,"refTime":"2026-03-25T09:00:00:Z","depth":0,"parameterNumber":2,"parameterNumberName":"U-component_of_WINDS"},"data":[0,0,0,-4.7374,-4.7377,-4.7518,-4.7518,-4.7715,-4.7716,0,0,0,0,0,0,0,0,0,0,0,-4.7342,-4.7344,-4.7374,-4.7378,-4.7518,-4.7519,-4.7714,-4.7716,0,0,0,0,0,0,0,0,0,0,0,-4.7341,-4.7343,-4.7345,-4.7378,-4.7518,-4.7519,-4.7714,-4.7602,0,0,0,0,0,0,0,0,0,0,-4.7463,-4.7442,-4.7343,-4.7345,-4.7379,-4.7518,-4.7519,-4.7596,-4.7609,-4.7658,0,-4.7704,0,-4.7713,-4.7731,-4.7731,0,0,0,-4.737,-4.7431,-4.7461,-4.7346,-4.738,-4.7518,-4.7453,-4.7603,-4.7617,-4.7675,-4.7706,-4.7713,-4.7717,-4.7732,-4.7733,-4.804,-4.8042,0,0,-4.7363,-4.7372,-4.7451,-4.7471,-4.745,-4.7448,-4.7457,-4.7612,-4.7646,-4.7707,-4.7717,-4.772,-4.7733,-4.7735,-4.8039,-4.8041,0,0,0,-4.7345,-4.7367,-4.7392,-4.7463,-4.7487,-4.7452,-4.7463,-4.7639,-4.7647,-4.7719,-4.7722,-4.7735,-4.7737,-4.8037,-4.8039,-4.8135,0,0,0,-4.734,-4.7357,-4.7389,-4.7396,-4.7485,-4.7565,-4.7487,-4.7636,-4.7653,-4.7721,-4.7735,-4.7739,-4.8035,-4.8038,-4.8128,-4.8178,0,0,0,-4.7329,-4.7355,-4.7379,-4.7397,-4.7458,-4.7562,-4.7579,-4.764,-4.7656,-4.7732,-4.774,-4.8033,-4.8037,-4.8122,-4.8168,-4.8261,0,0,0,-4.732,-4.7461,-4.7381,-4.754,-4.7457,-4.7622,-4.7577,-4.77,-4.7776,-4.7736,-4.8035,-4.8039,-4.812,-4.8161,-4.8254,-4.8339,-4.8375,0,0,-4.7503,-4.7484,-4.7577,-4.7509,-4.769,-4.7599,-4.7796,-4.7856,-4.7855,-4.7979,-4.7986,-4.8131,-4.8167,-4.8259,-4.8583,-4.8612,0,0,0,-4.7638,-4.7705,-4.7751,-4.7825,-4.7877,-4.7924,-4.7955,-4.7978,-4.8083,-4.7921,-4.819,-4.8212,-4.8265,-4.8305,-4.833,-4.8375,-4.8059,-4.8058,-4.8058,-4.7907,-4.79,-4.8054,-4.8064,-4.8137,-4.8169,-4.8227,-4.8264,-4.8234,-4.8298,-4.8333,-4.8531,-4.8578,-4.8597,-4.8644,-4.838,-4.838,-4.8381,-4.8381,-4.8173,-4.8266,-4.8226,-4.836,-4.8353,-4.8466,-4.8504,-4.8479,-4.8584,-4.8503,-4.855,-4.846,-4.8629,-4.867,-4.8388,-4.8387,-4.8386,-4.8385,-4.8385,-4.8346,-4.8389,-4.8417,-4.8525,-4.861,-4.8617,-4.8719,-4.8709,-4.87,-4.8747,-4.8782,-4.8781,-4.8776,-4.8765,-4.8766,-4.8767,-4.8767,-4.8768,-4.8768,-4.8513,-4.8541,-4.8629,-4.8699,-4.8746,-4.8808,-4.8845,-4.8891,-4.894,-4.8924,-4.8925,-4.8888,-4.8648,-4.8586,-4.8779,-4.8777,-4.8775,-4.8774,-4.8774,-4.8779,-4.8718,-4.8853,-4.8902,-4.8984,-4.9069,-4.9057,-4.9154,-4.9191,-4.9242,-4.9198,-4.9023,-4.9001,-4.8982,-4.893,-4.92,-4.92,-4.92,-4.92,-4.8923,-4.8913,-4.9049,-4.9127,-4.9203,-4.9206,-4.9361,-4.9393,-4.9416,-4.9439,-4.94,-4.9333,-4.9313,-4.9303,-4.9276,-4.9228,-4.9567,-4.9567,-4.9568,-4.9085,-4.9083,-4.9215,-4.9238,-4.9303,-4.9359,-4.9504,-4.9596,-4.961,-4.9582,-4.9457,-4.9442,-4.9332,-4.9298,-4.9262,-4.9221,-4.9132,0,0]},{"header":{"parameterUnit":"m.s-1","parameterCategory":1,"la1":30.2992,"la2":30.254,"lo1":-89.0895,"lo2":-89.0443,"dy":0.0025,"dx":0.0025,"nx":19,"ny":19,"refTime":"2026-03-25T09:00:00:Z","depth":0,"parameterNumber":3,"parameterNumberName":"V-component_of_WINDS"},"data":[0,0,0,2.3443,2.3443,2.3433,2.3433,2.3407,2.3406,0,0,0,0,0,0,0,0,0,0,0,2.3439,2.3438,2.3443,2.3443,2.3433,2.3433,2.3407,2.3406,0,0,0,0,0,0,0,0,0,0,0,2.3439,2.3439,2.3438,2.3443,2.3433,2.3433,2.3407,2.3419,0,0,0,0,0,0,0,0,0,0,2.343,2.342,2.3439,2.3438,2.3442,2.3433,2.3433,2.3419,2.3418,2.3405,0,2.3394,0,2.34,2.3404,2.3404,0,0,0,2.3447,2.3421,2.3425,2.3438,2.3442,2.3433,2.3439,2.3419,2.3417,2.3403,2.3394,2.3393,2.3399,2.3403,2.3403,2.3322,2.3322,0,0,2.3448,2.3433,2.3426,2.3424,2.3426,2.3439,2.3438,2.3418,2.3406,2.3394,2.3393,2.3399,2.3403,2.3403,2.3323,2.3322,0,0,0,2.3446,2.3433,2.3438,2.3424,2.3424,2.3438,2.3438,2.3407,2.341,2.3393,2.3399,2.3403,2.3403,2.3323,2.3322,2.328,0,0,0,2.3447,2.3432,2.3438,2.3428,2.3424,2.3415,2.3427,2.3411,2.3409,2.3399,2.3403,2.3402,2.3324,2.3323,2.3282,2.3261,0,0,0,2.3442,2.3432,2.3428,2.3428,2.3423,2.3416,2.3418,2.3411,2.3413,2.3404,2.3402,2.3324,2.3323,2.3285,2.3265,2.3236,0,0,0,2.3432,2.3389,2.3427,2.3381,2.3423,2.3391,2.3418,2.3394,2.3381,2.3403,2.3324,2.3322,2.3285,2.3268,2.3239,2.3209,2.3195,0,0,2.3369,2.338,2.3355,2.3389,2.3346,2.3393,2.3343,2.3344,2.3356,2.3332,2.333,2.3281,2.3265,2.3237,2.3125,2.3114,0,0,0,2.333,2.3311,2.3303,2.3292,2.3293,2.3293,2.3304,2.3304,2.3285,2.3341,2.3264,2.3255,2.3238,2.3225,2.3215,2.3202,2.3316,2.3316,2.3316,2.3218,2.3238,2.3197,2.3216,2.3204,2.3217,2.3209,2.3212,2.3233,2.3214,2.3207,2.3137,2.3121,2.3114,2.31,2.3193,2.3193,2.3193,2.3193,2.3128,2.3105,2.3137,2.3109,2.3129,2.3105,2.3116,2.3132,2.3111,2.3144,2.313,2.3164,2.3102,2.3091,2.319,2.319,2.3191,2.3191,2.3191,2.3057,2.305,2.3053,2.304,2.3027,2.3047,2.3027,2.3045,2.3063,2.3049,2.3044,2.3045,2.3048,2.3046,2.3046,2.3045,2.3045,2.3045,2.3045,2.2982,2.2988,2.2969,2.2969,2.2965,2.2962,2.2975,2.2971,2.2971,2.2986,2.2986,2.3009,2.3093,2.3113,2.3041,2.3042,2.3042,2.3043,2.3043,2.2883,2.2909,2.2881,2.2877,2.2878,2.2864,2.289,2.288,2.2879,2.2869,2.2895,2.2954,2.2966,2.2974,2.2991,2.2891,2.2891,2.2891,2.2891,2.2823,2.2832,2.2808,2.2801,2.2795,2.2816,2.2782,2.2793,2.2807,2.2808,2.2825,2.2849,2.2856,2.2864,2.2874,2.289,2.2768,2.2768,2.2767,2.2763,2.2773,2.2741,2.2758,2.2761,2.2762,2.2732,2.2721,2.2742,2.2763,2.2809,2.2814,2.2853,2.2865,2.2885,2.29,2.293,0,0]}]]